Stündliche Wetter Łabiszyn

Heute, 18 Mai, Dienstag

Zeit Temperatur Niederschläge Wind Luftdruck Luftfeuchtigkeit
00:00 +12°C° 0.1 mm 2 m/S 746 mmHg 89%
01:00 +12°C° 0 mm 1 m/S 746 mmHg 90%
02:00 +12°C° 0.2 mm 1 m/S 746 mmHg 91%
03:00 +11°C° 0.2 mm 1 m/S 746 mmHg 92%
04:00 +11°C° 0.2 mm 1 m/S 746 mmHg 92%
05:00 +12°C° 0.1 mm 1 m/S 747 mmHg 91%
06:00 +12°C° 0.1 mm 1 m/S 747 mmHg 89%
07:00 +13°C° 0.1 mm 1 m/S 747 mmHg 87%
08:00 +14°C° 0.7 mm 2 m/S 747 mmHg 86%
09:00 +14°C° 0.7 mm 2 m/S 748 mmHg 84%
10:00 +14°C° 0.7 mm 2 m/S 748 mmHg 82%
11:00 +15°C° 0.5 mm 2 m/S 748 mmHg 80%
12:00 +14°C° 0.5 mm 3 m/S 748 mmHg 78%
13:00 +16°C° 0.5 mm 3 m/S 748 mmHg 76%
14:00 +16°C° 0.5 mm 3 m/S 748 mmHg 76%
15:00 +16°C° 0.5 mm 3 m/S 749 mmHg 76%
16:00 +16°C° 0.5 mm 2 m/S 749 mmHg 76%
17:00 +15°C° 0.7 mm 2 m/S 749 mmHg 79%
18:00 +14°C° 0.7 mm 2 m/S 749 mmHg 83%
19:00 +13°C° 0.7 mm 2 m/S 749 mmHg 87%
20:00 +13°C° 0.2 mm 2 m/S 749 mmHg 89%
21:00 +12°C° 0.2 mm 2 m/S 750 mmHg 91%
22:00 +12°C° 0.2 mm 2 m/S 750 mmHg 93%
23:00 +10°C° 0 mm 2 m/S 750 mmHg 93%

Morgen, 19 Mai, Mittwoch

Zeit Temperatur Niederschläge Wind Luftdruck Luftfeuchtigkeit
00:00 +9°C° 0 mm 2 m/S 750 mmHg 94%
01:00 +9°C° 0 mm 3 m/S 750 mmHg 94%
02:00 +8°C° 0 mm 3 m/S 751 mmHg 95%
03:00 +8°C° 0 mm 3 m/S 751 mmHg 95%
04:00 +7°C° 0 mm 3 m/S 751 mmHg 95%
05:00 +8°C° 0 mm 3 m/S 751 mmHg 91%
06:00 +8°C° 0 mm 4 m/S 751 mmHg 87%
07:00 +10°C° 0 mm 4 m/S 751 mmHg 83%
08:00 +12°C° 0 mm 4 m/S 751 mmHg 76%
09:00 +13°C° 0 mm 5 m/S 751 mmHg 69%
10:00 +15°C° 0 mm 5 m/S 751 mmHg 62%
11:00 +15°C° 0.1 mm 5 m/S 751 mmHg 64%
12:00 +14°C° 0.1 mm 5 m/S 751 mmHg 66%
13:00 +14°C° 0.1 mm 4 m/S 751 mmHg 67%
14:00 +14°C° 0.3 mm 4 m/S 751 mmHg 67%
15:00 +15°C° 0.3 mm 4 m/S 751 mmHg 66%
16:00 +15°C° 0.3 mm 4 m/S 751 mmHg 66%
17:00 +14°C° 0.2 mm 4 m/S 752 mmHg 70%
18:00 +12°C° 0.2 mm 3 m/S 752 mmHg 74%
19:00 +11°C° 0.2 mm 3 m/S 752 mmHg 78%
20:00 +10°C° 0 mm 3 m/S 752 mmHg 81%
21:00 +9°C° 0 mm 3 m/S 753 mmHg 83%
22:00 +7°C° 0 mm 2 m/S 753 mmHg 85%
23:00 +7°C° 0 mm 2 m/S 753 mmHg 86%

übermorgen, 20 Mai, Donnerstag

Zeit Temperatur Niederschläge Wind Luftdruck Luftfeuchtigkeit
00:00 +6°C° 0 mm 2 m/S 753 mmHg 86%
01:00 +6°C° 0 mm 2 m/S 753 mmHg 87%
02:00 +5°C° 0 mm 2 m/S 754 mmHg 87%
03:00 +5°C° 0 mm 2 m/S 754 mmHg 88%
04:00 +5°C° 0 mm 2 m/S 754 mmHg 89%
05:00 +7°C° 0 mm 2 m/S 754 mmHg 84%
06:00 +8°C° 0 mm 3 m/S 755 mmHg 79%
07:00 +10°C° 0 mm 3 m/S 755 mmHg 75%
08:00 +12°C° 0 mm 3 m/S 755 mmHg 69%
09:00 +13°C° 0 mm 3 m/S 755 mmHg 64%
10:00 +16°C° 0 mm 3 m/S 755 mmHg 59%
11:00 +15°C° 0.1 mm 4 m/S 755 mmHg 58%
12:00 +15°C° 0.1 mm 4 m/S 755 mmHg 58%
13:00 +16°C° 0.1 mm 5 m/S 755 mmHg 58%
14:00 +15°C° 0.1 mm 5 m/S 755 mmHg 60%
15:00 +15°C° 0.1 mm 5 m/S 755 mmHg 62%
16:00 +14°C° 0.1 mm 4 m/S 755 mmHg 65%
17:00 +13°C° 0.1 mm 4 m/S 755 mmHg 70%
18:00 +12°C° 0.1 mm 3 m/S 756 mmHg 74%
19:00 +11°C° 0.1 mm 3 m/S 756 mmHg 79%
20:00 +10°C° 0 mm 3 m/S 756 mmHg 82%
21:00 +9°C° 0 mm 2 m/S 756 mmHg 85%
22:00 +7°C° 0 mm 2 m/S 756 mmHg 88%
23:00 +7°C° 0 mm 2 m/S 756 mmHg 89%

21 Mai, Freitag

Zeit Temperatur Niederschläge Wind Luftdruck Luftfeuchtigkeit
00:00 +6°C° 0 mm 2 m/S 756 mmHg 90%
01:00 +6°C° 0 mm 2 m/S 756 mmHg 90%
02:00 +6°C° 0 mm 2 m/S 756 mmHg 91%
03:00 +6°C° 0 mm 2 m/S 756 mmHg 91%
04:00 +5°C° 0 mm 2 m/S 756 mmHg 92%
05:00 +7°C° 0 mm 3 m/S 756 mmHg 87%
06:00 +8°C° 0 mm 4 m/S 756 mmHg 83%
07:00 +11°C° 0 mm 4 m/S 756 mmHg 78%
08:00 +12°C° 0 mm 5 m/S 755 mmHg 73%
09:00 +14°C° 0 mm 5 m/S 755 mmHg 67%
10:00 +15°C° 0 mm 5 m/S 754 mmHg 62%
11:00 +15°C° 0.1 mm 6 m/S 754 mmHg 60%
12:00 +16°C° 0.1 mm 6 m/S 754 mmHg 59%
13:00 +16°C° 0.1 mm 6 m/S 753 mmHg 57%
14:00 +16°C° 0.1 mm 6 m/S 753 mmHg 58%
15:00 +16°C° 0.1 mm 6 m/S 752 mmHg 59%
16:00 +17°C° 0.1 mm 6 m/S 752 mmHg 60%
17:00 +16°C° 0.1 mm 5 m/S 751 mmHg 64%
18:00 +15°C° 0.1 mm 5 m/S 750 mmHg 68%
19:00 +14°C° 0.1 mm 5 m/S 750 mmHg 72%
20:00 +13°C° 0.1 mm 4 m/S 750 mmHg 75%
21:00 +12°C° 0.1 mm 4 m/S 749 mmHg 78%
22:00 +12°C° 0.1 mm 3 m/S 749 mmHg 82%
23:00 +12°C° 0 mm 3 m/S 749 mmHg 82%

22 Mai, Samstag

Zeit Temperatur Niederschläge Wind Luftdruck Luftfeuchtigkeit
00:00 +12°C° 0 mm 3 m/S 749 mmHg 83%
01:00 +11°C° 0 mm 3 m/S 748 mmHg 83%
02:00 +11°C° 0 mm 3 m/S 748 mmHg 84%
03:00 +11°C° 0 mm 3 m/S 747 mmHg 84%
04:00 +11°C° 0 mm 3 m/S 747 mmHg 85%
05:00 +11°C° 0 mm 4 m/S 747 mmHg 83%
06:00 +12°C° 0 mm 4 m/S 747 mmHg 82%
07:00 +13°C° 0 mm 4 m/S 747 mmHg 81%
08:00 +14°C° 0.1 mm 4 m/S 747 mmHg 79%
09:00 +14°C° 0.1 mm 4 m/S 747 mmHg 77%
10:00 +15°C° 0.1 mm 4 m/S 747 mmHg 74%
11:00 +15°C° 0.3 mm 4 m/S 747 mmHg 75%
12:00 +15°C° 0.3 mm 4 m/S 746 mmHg 76%
13:00 +16°C° 0.3 mm 5 m/S 746 mmHg 77%
14:00 +14°C° 0.7 mm 4 m/S 746 mmHg 82%
15:00 +13°C° 0.7 mm 4 m/S 746 mmHg 88%
16:00 +12°C° 0.7 mm 4 m/S 746 mmHg 93%
17:00 +12°C° 0.2 mm 4 m/S 747 mmHg 91%
18:00 +12°C° 0.2 mm 4 m/S 747 mmHg 90%
19:00 +12°C° 0.2 mm 4 m/S 747 mmHg 89%
20:00 +11°C° 0 mm 4 m/S 747 mmHg 89%
21:00 +10°C° 0 mm 4 m/S 747 mmHg 89%
22:00 +9°C° 0 mm 3 m/S 748 mmHg 90%
23:00 +8°C° 0 mm 4 m/S 748 mmHg 90%

23 Mai, Sonntag

Zeit Temperatur Niederschläge Wind Luftdruck Luftfeuchtigkeit
00:00 +8°C° 0 mm 4 m/S 748 mmHg 90%
01:00 +7°C° 0 mm 5 m/S 748 mmHg 90%
02:00 +7°C° 0 mm 5 m/S 748 mmHg 92%
03:00 +6°C° 0 mm 5 m/S 749 mmHg 93%
04:00 +6°C° 0 mm 4 m/S 749 mmHg 95%
05:00 +7°C° 0 mm 5 m/S 749 mmHg 91%
06:00 +8°C° 0 mm 5 m/S 749 mmHg 87%
07:00 +9°C° 0 mm 6 m/S 750 mmHg 83%
08:00 +11°C° 0.1 mm 6 m/S 750 mmHg 77%
09:00 +13°C° 0.1 mm 6 m/S 750 mmHg 71%
10:00 +14°C° 0.1 mm 7 m/S 750 mmHg 64%
11:00 +14°C° 0.1 mm 7 m/S 750 mmHg 58%
12:00 +15°C° 0.1 mm 7 m/S 750 mmHg 52%
13:00 +16°C° 0.1 mm 7 m/S 750 mmHg 46%
14:00 +15°C° 0 mm 7 m/S 751 mmHg 50%
15:00 +15°C° 0 mm 6 m/S 751 mmHg 53%
16:00 +15°C° 0 mm 6 m/S 751 mmHg 56%
17:00 +14°C° 0 mm 5 m/S 752 mmHg 61%
18:00 +12°C° 0 mm 4 m/S 752 mmHg 66%
19:00 +11°C° 0 mm 3 m/S 752 mmHg 71%
20:00 +10°C° 0 mm 3 m/S 753 mmHg 74%
21:00 +9°C° 0 mm 3 m/S 753 mmHg 78%
22:00 +7°C° 0 mm 3 m/S 753 mmHg 81%
23:00 +8°C° 0 mm 3 m/S 753 mmHg 80%
Mehr zeigen

Wir brauchen deine Erlaubnis

Meteoprog und unser Service Anbieter werden persönliche Daten aufbewahren, so wie Cookies, Geräte Bezeichnung oder ähnliche Technologien von deinem Gerät und Prozess, so wie Persönliche Daten Inhalte und Werbungen, genauso wie social Media und den Verkehr zu analysieren.

  • Aufbewahrung und/oder Zugang zu deiner Geräte Informationen.

    Cookies, Geräte Bezeichnung oder andere Informationen, können aufbewahrt oder Zugang zu deinem Gerät erhalten, für den Grund, der oben angegeben wird.

  • Personalisierte Werbung und Inhalte, Messungen, Einblick in das Publikum und Produkt Entwicklung.

    Werbungen und Inhalte können personalisiert werden, basierend auf ein Profil. Mehr Daten können besser personalisierte Werbungen und Inhalte hinzufügen. Werbung und Inhalte können gezeigt und gemessen werden. Einblicke über das Publikum, welche die Werbung gesehen haben und den Inhalt, können abgeleitet werden. So wie Daten können genutzt werden, um es zu verbessern oder die Benutzer Erfahrung zu verbessern das System und die Software.

Wenn du “Ich stimme zu” klickst, erlaubst du uns, die Cookies zu benutzen die Geräte Bezeichnung, den Web oder ähnliche Technologien zu benutzen. Deine Settings, können in deinem Gerät bei deinem Browser geändert werden.

Für den bestimmten Zweck, berechtigten Interessen beruhen darauf, mehr als auf den Inhalt. Du kannst mehr darüber in unseren Privaten und Cookie Politik lesen.